When you browse on this site, cookies collect data to enhance your experience and personalize the content and advertising you see.
Visit our Privacy Policy to learn more. By continuing to use the site, you agree to this use of cookies and data.
  • In Hungary
  • List of Countries
  • For 7 days
  • Water Temperature
  • Satellite Maps
  • Weather Map
  • News
  • Weather Widgets
  • user-avatar
    Login

    Hourly Weather Balakan

    Today, 19 March, Tuesday

    Time Temperature Precipitation Wind Pressure Humidity
    00:00 +8°C° 0.4 mm 1 mps 732 mmHg 81%
    01:00 +8°C° 0.3 mm 1 mps 732 mmHg 81%
    02:00 +7°C° 0.3 mm 1 mps 732 mmHg 82%
    03:00 +7°C° 0.3 mm 1 mps 732 mmHg 82%
    04:00 +7°C° 0.2 mm 1 mps 732 mmHg 82%
    05:00 +7°C° 0.2 mm 1 mps 732 mmHg 82%
    06:00 +7°C° 0.2 mm 1 mps 733 mmHg 82%
    07:00 +8°C° 0.2 mm 1 mps 733 mmHg 77%
    08:00 +9°C° 0.2 mm 1 mps 733 mmHg 72%
    09:00 +9°C° 0.2 mm 2 mps 733 mmHg 68%
    10:00 +10°C° 0.2 mm 2 mps 733 mmHg 66%
    11:00 +10°C° 0.2 mm 2 mps 733 mmHg 64%
    12:00 +12°C° 0.2 mm 2 mps 733 mmHg 62%
    13:00 +12°C° 0.3 mm 2 mps 732 mmHg 62%
    14:00 +13°C° 0.3 mm 2 mps 732 mmHg 61%
    15:00 +13°C° 0.3 mm 1 mps 732 mmHg 61%
    16:00 +12°C° 0.2 mm 1 mps 732 mmHg 64%
    17:00 +11°C° 0.2 mm 1 mps 732 mmHg 68%
    18:00 +10°C° 0.2 mm 1 mps 732 mmHg 71%
    19:00 +10°C° 0.2 mm 1 mps 732 mmHg 72%
    20:00 +10°C° 0.2 mm 1 mps 732 mmHg 73%
    21:00 +9°C° 0.2 mm 1 mps 733 mmHg 74%
    22:00 +9°C° 0.2 mm 1 mps 732 mmHg 76%
    23:00 +9°C° 0.2 mm 1 mps 732 mmHg 78%

    Tomorrow, 20 March, Wednesday

    Time Temperature Precipitation Wind Pressure Humidity
    00:00 +8°C° 0.2 mm 1 mps 732 mmHg 80%
    01:00 +8°C° 0.1 mm 1 mps 732 mmHg 82%
    02:00 +8°C° 0.1 mm 1 mps 732 mmHg 83%
    03:00 +7°C° 0.1 mm 1 mps 731 mmHg 85%
    04:00 +7°C° 0.1 mm 1 mps 731 mmHg 85%
    05:00 +7°C° 0.1 mm 1 mps 731 mmHg 84%
    06:00 +6°C° 0.1 mm 2 mps 731 mmHg 84%
    07:00 +7°C° 0.1 mm 2 mps 731 mmHg 81%
    08:00 +8°C° 0.1 mm 2 mps 731 mmHg 77%
    09:00 +10°C° 0.1 mm 2 mps 731 mmHg 74%
    10:00 +10°C° 0.1 mm 2 mps 731 mmHg 71%
    11:00 +11°C° 0.1 mm 3 mps 731 mmHg 68%
    12:00 +12°C° 0.1 mm 3 mps 730 mmHg 66%
    13:00 +12°C° 0.1 mm 3 mps 730 mmHg 65%
    14:00 +13°C° 0.1 mm 3 mps 730 mmHg 65%
    15:00 +13°C° 0.1 mm 3 mps 729 mmHg 65%
    16:00 +12°C° 0 mm 3 mps 730 mmHg 72%
    17:00 +10°C° 0 mm 3 mps 730 mmHg 78%
    18:00 +9°C° 0 mm 2 mps 730 mmHg 85%
    19:00 +8°C° 0 mm 2 mps 730 mmHg 83%
    20:00 +8°C° 0 mm 2 mps 731 mmHg 82%
    21:00 +7°C° 0 mm 2 mps 731 mmHg 81%
    22:00 +7°C° 0 mm 2 mps 731 mmHg 79%
    23:00 +6°C° 0 mm 2 mps 731 mmHg 78%

    Day after tomorrow, 21 March, Thursday

    Time Temperature Precipitation Wind Pressure Humidity
    00:00 +7°C° 0 mm 1 mps 731 mmHg 76%
    01:00 +7°C° 0 mm 1 mps 731 mmHg 72%
    02:00 +7°C° 0 mm 1 mps 731 mmHg 69%
    03:00 +6°C° 0 mm 1 mps 731 mmHg 65%
    04:00 +5°C° 0 mm 2 mps 731 mmHg 62%
    05:00 +5°C° 0 mm 2 mps 731 mmHg 58%
    06:00 +5°C° 0 mm 2 mps 731 mmHg 55%
    07:00 +7°C° 0 mm 2 mps 731 mmHg 55%
    08:00 +9°C° 0 mm 2 mps 731 mmHg 56%
    09:00 +10°C° 0 mm 2 mps 731 mmHg 56%
    10:00 +12°C° 0 mm 2 mps 731 mmHg 57%
    11:00 +13°C° 0 mm 2 mps 730 mmHg 58%
    12:00 +14°C° 0 mm 2 mps 730 mmHg 58%
    13:00 +14°C° 0 mm 2 mps 730 mmHg 58%
    14:00 +14°C° 0 mm 2 mps 729 mmHg 58%
    15:00 +15°C° 0 mm 2 mps 729 mmHg 57%
    16:00 +14°C° 0 mm 2 mps 729 mmHg 63%
    17:00 +12°C° 0 mm 1 mps 729 mmHg 68%
    18:00 +11°C° 0 mm 1 mps 729 mmHg 73%
    19:00 +11°C° 0 mm 1 mps 730 mmHg 74%
    20:00 +10°C° 0 mm 1 mps 730 mmHg 75%
    21:00 +9°C° 0 mm 1 mps 731 mmHg 76%
    22:00 +9°C° 0.1 mm 1 mps 730 mmHg 77%
    23:00 +9°C° 0.1 mm 1 mps 730 mmHg 78%

    22 March, Friday

    Time Temperature Precipitation Wind Pressure Humidity
    00:00 +9°C° 0.1 mm 1 mps 730 mmHg 79%
    01:00 +8°C° 0.1 mm 1 mps 730 mmHg 79%
    02:00 +8°C° 0.1 mm 1 mps 730 mmHg 79%
    03:00 +8°C° 0.1 mm 1 mps 730 mmHg 79%
    04:00 +7°C° 0.1 mm 1 mps 730 mmHg 77%
    05:00 +7°C° 0.1 mm 1 mps 730 mmHg 75%
    06:00 +7°C° 0.1 mm 1 mps 730 mmHg 74%
    07:00 +8°C° 0 mm 1 mps 730 mmHg 68%
    08:00 +10°C° 0 mm 1 mps 730 mmHg 62%
    09:00 +11°C° 0 mm 1 mps 730 mmHg 56%
    10:00 +12°C° 0 mm 2 mps 729 mmHg 52%
    11:00 +13°C° 0 mm 2 mps 729 mmHg 48%
    12:00 +14°C° 0 mm 2 mps 729 mmHg 44%
    13:00 +14°C° 0 mm 2 mps 728 mmHg 42%
    14:00 +14°C° 0 mm 2 mps 728 mmHg 39%
    15:00 +13°C° 0 mm 3 mps 728 mmHg 36%
    16:00 +12°C° 0 mm 2 mps 728 mmHg 38%
    17:00 +9°C° 0 mm 2 mps 728 mmHg 39%
    18:00 +9°C° 0 mm 1 mps 728 mmHg 40%
    19:00 +8°C° 0 mm 1 mps 729 mmHg 38%
    20:00 +7°C° 0 mm 2 mps 730 mmHg 36%
    21:00 +6°C° 0 mm 2 mps 730 mmHg 34%
    22:00 +6°C° 0 mm 2 mps 730 mmHg 35%
    23:00 +6°C° 0 mm 1 mps 730 mmHg 35%

    23 March, Saturday

    Time Temperature Precipitation Wind Pressure Humidity
    00:00 +6°C° 0 mm 1 mps 730 mmHg 35%
    01:00 +6°C° 0 mm 1 mps 731 mmHg 36%
    02:00 +5°C° 0 mm 1 mps 731 mmHg 37%
    03:00 +4°C° 0 mm 2 mps 731 mmHg 38%
    04:00 +4°C° 0 mm 2 mps 731 mmHg 39%
    05:00 +3°C° 0 mm 2 mps 731 mmHg 40%
    06:00 +3°C° 0 mm 2 mps 731 mmHg 40%
    07:00 +4°C° 0 mm 2 mps 731 mmHg 39%
    08:00 +7°C° 0 mm 1 mps 732 mmHg 38%
    09:00 +8°C° 0 mm 1 mps 732 mmHg 37%
    10:00 +9°C° 0 mm 1 mps 732 mmHg 36%
    11:00 +10°C° 0 mm 1 mps 731 mmHg 35%
    12:00 +10°C° 0 mm 2 mps 731 mmHg 35%
    13:00 +9°C° 0 mm 2 mps 730 mmHg 35%
    14:00 +9°C° 0 mm 2 mps 730 mmHg 34%
    15:00 +9°C° 0 mm 2 mps 730 mmHg 34%
    16:00 +9°C° 0 mm 1 mps 730 mmHg 37%
    17:00 +8°C° 0 mm 1 mps 730 mmHg 40%
    18:00 +7°C° 0 mm 1 mps 730 mmHg 43%
    19:00 +6°C° 0 mm 1 mps 730 mmHg 44%
    20:00 +5°C° 0 mm 1 mps 730 mmHg 46%
    21:00 +4°C° 0 mm 1 mps 731 mmHg 48%
    22:00 +4°C° 0 mm 1 mps 731 mmHg 50%
    23:00 +4°C° 0 mm 1 mps 730 mmHg 51%

    24 March, Sunday

    Time Temperature Precipitation Wind Pressure Humidity
    00:00 +4°C° 0 mm 1 mps 730 mmHg 53%
    01:00 +4°C° 0 mm 1 mps 730 mmHg 56%
    02:00 +4°C° 0 mm 1 mps 730 mmHg 59%
    03:00 +4°C° 0 mm 1 mps 730 mmHg 62%
    04:00 +3°C° 0 mm 1 mps 730 mmHg 65%
    05:00 +3°C° 0 mm 1 mps 729 mmHg 68%
    06:00 +3°C° 0 mm 1 mps 729 mmHg 70%
    07:00 +4°C° 0 mm 2 mps 729 mmHg 66%
    08:00 +6°C° 0 mm 2 mps 729 mmHg 61%
    09:00 +8°C° 0 mm 2 mps 729 mmHg 56%
    10:00 +9°C° 0 mm 2 mps 729 mmHg 54%
    11:00 +10°C° 0 mm 2 mps 729 mmHg 52%
    12:00 +10°C° 0 mm 2 mps 728 mmHg 50%
    13:00 +12°C° 0.1 mm 2 mps 728 mmHg 49%
    14:00 +12°C° 0.1 mm 2 mps 727 mmHg 49%
    15:00 +12°C° 0.1 mm 2 mps 727 mmHg 48%
    16:00 +11°C° 0 mm 1 mps 727 mmHg 51%
    17:00 +10°C° 0 mm 1 mps 727 mmHg 54%
    18:00 +8°C° 0 mm 0 mps 728 mmHg 57%
    19:00 +9°C° 0 mm 1 mps 728 mmHg 58%
    20:00 +8°C° 0 mm 1 mps 728 mmHg 58%
    21:00 +7°C° 0 mm 1 mps 729 mmHg 59%
    22:00 +7°C° 0 mm 1 mps 729 mmHg 60%
    23:00 +6°C° 0 mm 1 mps 729 mmHg 61%
    Show more